Simultaneous Nadir Overpasses (SNOs) Predictions

Prediction of SNOs between GOES-16 and NOAA-19 Satellite Orbit:

Table of predicted SNOs for the next 14.0 days since TLE Epoch: 12/3/2022
Index Date Time (GOES-16) GOES-16 Lat,Lon NOAA-19 Lat,Lon Distance(km) Time Diff (sec)
1 12/04/2022 01:24:45 0.06, -75.19 -0.59, -78.01 321.86 80
2 12/05/2022 01:10:11 0.06, -75.19 0.09, -75.11 10.36 80
3 12/06/2022 00:58:16 0.05, -75.20 0.78, -72.21 342.48 80
4 12/08/2022 13:21:12 -0.04, -75.24 0.36, -77.01 202.03 80
5 12/09/2022 13:06:38 -0.04, -75.25 -0.32, -74.11 130.55 80
6 12/10/2022 12:54:42 -0.03, -75.26 -0.95, -71.19 463.21 80
7 12/12/2022 01:29:51 0.03, -75.26 -0.84, -78.98 424.43 80
8 12/13/2022 01:17:56 0.03, -75.27 -0.14, -76.08 91.28 80
9 12/14/2022 01:03:21 0.02, -75.29 0.50, -73.17 242.09 80
10 12/16/2022 13:26:18 -0.02, -75.35 0.57, -77.99 300.05 80
